Tiempo cada hora Muly

Hoy, 29 Octubre, Jueves

Tiempo Temperatura Precipitaciones Viento Presión Humedad
00:00 +11°C° 0 mm 3 mps 751 mmHg 91%
01:00 +12°C° 0 mm 2 mps 750 mmHg 92%
02:00 +12°C° 0 mm 2 mps 750 mmHg 94%
03:00 +10°C° 0 mm 2 mps 750 mmHg 94%
04:00 +10°C° 0 mm 2 mps 750 mmHg 93%
05:00 +9°C° 0 mm 2 mps 750 mmHg 93%
06:00 +9°C° 0 mm 2 mps 749 mmHg 93%
07:00 +10°C° 0 mm 2 mps 749 mmHg 92%
08:00 +10°C° 0 mm 2 mps 749 mmHg 91%
09:00 +10°C° 0 mm 2 mps 749 mmHg 87%
10:00 +11°C° 0 mm 3 mps 749 mmHg 84%
11:00 +12°C° 0 mm 3 mps 749 mmHg 80%
12:00 +12°C° 0 mm 3 mps 749 mmHg 78%
13:00 +12°C° 0 mm 3 mps 749 mmHg 76%
14:00 +13°C° 0 mm 3 mps 749 mmHg 73%
15:00 +12°C° 0 mm 3 mps 749 mmHg 76%
16:00 +12°C° 0 mm 2 mps 748 mmHg 80%
17:00 +12°C° 0 mm 2 mps 748 mmHg 83%
18:00 +10°C° 0 mm 2 mps 749 mmHg 84%
19:00 +10°C° 0 mm 2 mps 749 mmHg 86%
20:00 +9°C° 0 mm 2 mps 749 mmHg 88%
21:00 +9°C° 0.1 mm 2 mps 749 mmHg 89%
22:00 +9°C° 0.1 mm 3 mps 749 mmHg 90%
23:00 +9°C° 0.1 mm 3 mps 749 mmHg 91%

Mañana, 30 Octubre, Viernes

Tiempo Temperatura Precipitaciones Viento Presión Humedad
00:00 +9°C° 0 mm 3 mps 749 mmHg 91%
01:00 +9°C° 0 mm 3 mps 749 mmHg 91%
02:00 +8°C° 0 mm 3 mps 749 mmHg 92%
03:00 +7°C° 0 mm 3 mps 749 mmHg 92%
04:00 +7°C° 0 mm 3 mps 749 mmHg 92%
05:00 +5°C° 0 mm 3 mps 749 mmHg 92%
06:00 +5°C° 0.2 mm 3 mps 749 mmHg 92%
07:00 +5°C° 0.2 mm 3 mps 750 mmHg 92%
08:00 +5°C° 0.2 mm 4 mps 750 mmHg 92%
09:00 +6°C° 0.6 mm 4 mps 750 mmHg 90%
10:00 +7°C° 0.6 mm 5 mps 750 mmHg 89%
11:00 +7°C° 0.6 mm 5 mps 750 mmHg 87%
12:00 +8°C° 0.3 mm 5 mps 750 mmHg 85%
13:00 +8°C° 0.3 mm 5 mps 750 mmHg 84%
14:00 +8°C° 0.3 mm 5 mps 750 mmHg 82%
15:00 +8°C° 0.2 mm 5 mps 750 mmHg 83%
16:00 +8°C° 0.2 mm 4 mps 750 mmHg 85%
17:00 +9°C° 0.2 mm 3 mps 750 mmHg 86%
18:00 +8°C° 0.1 mm 3 mps 751 mmHg 86%
19:00 +8°C° 0.1 mm 3 mps 751 mmHg 87%
20:00 +8°C° 0.1 mm 3 mps 751 mmHg 88%
21:00 +8°C° 0.1 mm 3 mps 751 mmHg 90%
22:00 +8°C° 0.1 mm 2 mps 751 mmHg 91%
23:00 +7°C° 0.1 mm 2 mps 751 mmHg 93%

Pasado mañana, 31 Octubre, Sábado

Tiempo Temperatura Precipitaciones Viento Presión Humedad
00:00 +7°C° 0.1 mm 2 mps 752 mmHg 93%
01:00 +7°C° 0.1 mm 2 mps 752 mmHg 93%
02:00 +7°C° 0.1 mm 2 mps 752 mmHg 94%
03:00 +7°C° 0.3 mm 2 mps 752 mmHg 94%
04:00 +7°C° 0.3 mm 2 mps 752 mmHg 94%
05:00 +7°C° 0.3 mm 2 mps 753 mmHg 94%
06:00 +7°C° 0.1 mm 2 mps 753 mmHg 95%
07:00 +6°C° 0.1 mm 2 mps 753 mmHg 95%
08:00 +6°C° 0.1 mm 2 mps 754 mmHg 96%
09:00 +7°C° 0 mm 2 mps 754 mmHg 90%
10:00 +8°C° 0 mm 2 mps 755 mmHg 84%
11:00 +9°C° 0 mm 2 mps 755 mmHg 78%
12:00 +9°C° 0 mm 2 mps 756 mmHg 77%
13:00 +10°C° 0 mm 2 mps 756 mmHg 75%
14:00 +10°C° 0 mm 2 mps 756 mmHg 73%
15:00 +10°C° 0 mm 2 mps 756 mmHg 78%
16:00 +9°C° 0 mm 2 mps 757 mmHg 83%
17:00 +8°C° 0 mm 2 mps 757 mmHg 88%
18:00 +8°C° 0 mm 2 mps 757 mmHg 90%
19:00 +7°C° 0 mm 2 mps 758 mmHg 92%
20:00 +6°C° 0 mm 2 mps 759 mmHg 94%
21:00 +6°C° 0 mm 2 mps 759 mmHg 95%
22:00 +6°C° 0 mm 2 mps 759 mmHg 95%
23:00 +6°C° 0 mm 2 mps 759 mmHg 96%

1 Noviembre, Domingo

Tiempo Temperatura Precipitaciones Viento Presión Humedad
00:00 +7°C° 0 mm 1 mps 759 mmHg 96%
01:00 +6°C° 0 mm 1 mps 759 mmHg 96%
02:00 +6°C° 0 mm 1 mps 759 mmHg 96%
03:00 +6°C° 0 mm 1 mps 759 mmHg 95%
04:00 +6°C° 0 mm 1 mps 759 mmHg 95%
05:00 +6°C° 0 mm 1 mps 759 mmHg 95%
06:00 +6°C° 0 mm 1 mps 759 mmHg 95%
07:00 +6°C° 0 mm 1 mps 759 mmHg 95%
08:00 +6°C° 0 mm 1 mps 759 mmHg 94%
09:00 +7°C° 0 mm 1 mps 759 mmHg 91%
10:00 +9°C° 0 mm 1 mps 759 mmHg 87%
11:00 +9°C° 0 mm 2 mps 759 mmHg 84%
12:00 +10°C° 0 mm 2 mps 759 mmHg 81%
13:00 +10°C° 0 mm 2 mps 759 mmHg 79%
14:00 +12°C° 0 mm 2 mps 759 mmHg 76%
15:00 +10°C° 0 mm 2 mps 758 mmHg 80%
16:00 +9°C° 0 mm 2 mps 758 mmHg 84%
17:00 +8°C° 0 mm 2 mps 758 mmHg 88%
18:00 +8°C° 0 mm 2 mps 758 mmHg 90%
19:00 +7°C° 0 mm 2 mps 758 mmHg 91%
20:00 +7°C° 0 mm 2 mps 758 mmHg 93%
21:00 +7°C° 0 mm 2 mps 757 mmHg 93%
22:00 +6°C° 0 mm 2 mps 757 mmHg 93%
23:00 +6°C° 0 mm 2 mps 757 mmHg 94%

2 Noviembre, Lunes

Tiempo Temperatura Precipitaciones Viento Presión Humedad
00:00 +5°C° 0 mm 3 mps 757 mmHg 94%
01:00 +5°C° 0 mm 3 mps 757 mmHg 94%
02:00 +4°C° 0 mm 3 mps 757 mmHg 93%
03:00 +4°C° 0 mm 3 mps 756 mmHg 94%
04:00 +4°C° 0 mm 3 mps 756 mmHg 94%
05:00 +4°C° 0 mm 3 mps 756 mmHg 94%
06:00 +4°C° 0 mm 3 mps 756 mmHg 94%
07:00 +4°C° 0 mm 3 mps 756 mmHg 94%
08:00 +4°C° 0 mm 3 mps 756 mmHg 94%
09:00 +5°C° 0 mm 3 mps 756 mmHg 89%
10:00 +6°C° 0 mm 4 mps 756 mmHg 84%
11:00 +7°C° 0 mm 4 mps 756 mmHg 79%
12:00 +8°C° 0 mm 4 mps 756 mmHg 76%
13:00 +10°C° 0 mm 4 mps 756 mmHg 73%
14:00 +11°C° 0 mm 4 mps 756 mmHg 70%
15:00 +10°C° 0 mm 4 mps 756 mmHg 74%
16:00 +8°C° 0 mm 4 mps 756 mmHg 78%
17:00 +7°C° 0 mm 4 mps 756 mmHg 82%
18:00 +7°C° 0 mm 4 mps 756 mmHg 84%
19:00 +6°C° 0 mm 4 mps 756 mmHg 86%
20:00 +6°C° 0 mm 4 mps 756 mmHg 88%
21:00 +6°C° 0 mm 4 mps 756 mmHg 90%
22:00 +5°C° 0 mm 4 mps 756 mmHg 91%
23:00 +5°C° 0 mm 4 mps 756 mmHg 92%

3 Noviembre, Martes

Tiempo Temperatura Precipitaciones Viento Presión Humedad
00:00 +5°C° 0 mm 4 mps 756 mmHg 93%
01:00 +5°C° 0 mm 4 mps 757 mmHg 93%
02:00 +5°C° 0 mm 4 mps 757 mmHg 94%
03:00 +5°C° 0 mm 4 mps 757 mmHg 94%
04:00 +5°C° 0 mm 3 mps 757 mmHg 95%
05:00 +4°C° 0 mm 3 mps 757 mmHg 95%
06:00 +4°C° 0 mm 3 mps 757 mmHg 95%
07:00 +4°C° 0 mm 3 mps 757 mmHg 95%
08:00 +4°C° 0 mm 3 mps 757 mmHg 95%
09:00 +7°C° 0 mm 3 mps 757 mmHg 90%
10:00 +7°C° 0 mm 4 mps 758 mmHg 85%
11:00 +10°C° 0 mm 4 mps 758 mmHg 80%
12:00 +10°C° 0 mm 4 mps 758 mmHg 79%
13:00 +11°C° 0 mm 4 mps 758 mmHg 77%
14:00 +12°C° 0 mm 4 mps 758 mmHg 76%
15:00 +11°C° 0 mm 3 mps 758 mmHg 79%
16:00 +10°C° 0 mm 3 mps 758 mmHg 82%
17:00 +9°C° 0 mm 3 mps 758 mmHg 86%
18:00 +9°C° 0 mm 3 mps 758 mmHg 87%
19:00 +9°C° 0 mm 3 mps 759 mmHg 88%
20:00 +9°C° 0 mm 3 mps 759 mmHg 88%
21:00 +8°C° 0 mm 3 mps 759 mmHg 88%
22:00 +8°C° 0 mm 3 mps 759 mmHg 88%
23:00 +7°C° 0 mm 2 mps 760 mmHg 88%
Mostrar más

Necesitamos Su Consentimiento

Meteoprog y nuestros Proveedores de Servicios pueden almacenar y acceder a sus datos personales como cookies, identificadores de dispositivo u otras tecnologías similares de su dispositivo y procesar dichos datos para personalizar contenido y anuncios, además de ofrecer funciones de redes sociales y analizar el tráfico.

  • Almacenar y/o acceder a información en su dispositivo

    Se puede almacenar o acceder a cookies, identificadores de dispositivo u otra información de su dispositivo para los fines anteriormente indicados.

  • Anuncios y contenido personalizados, medición de anuncios y contenido, percepciones del público, y desarrollo de productos

    Los anuncios y el contenido pueden personalizarse en base a su perfil. Se pueden añadir más datos para personalizar mejor los anuncios y contenidos. Se puede medir el rendimiento de los anuncios y contenidos. Se puede obtener la percepción sobre el público que ha visto los anuncios y contenidos. Dichos datos pueden usarse para desarrollar o mejorar la experiencia del usuario, sistemas y software.

Al hacer clic en ‘Estoy De Acuerdo’ usted permitirá el uso de las cookies, identificadores de dispositivo, balizas web u otras tecnologías similares indicadas. Su configuración puede cambiarse desde el navegador de su dispositivo.

Para ciertos fines, los intereses legítimos pueden ser considerados por encima del consentimiento. Puede leer más sobre ello en nuestra Política de Privacidad y Cookies.